Lid_Strength_Index
1 1 1 1 1 0 0 0 0 -0 0 0 0 -0 0 -0 -0 -0 0 -0 0 1 0 0 0 0 1 1 1 1 1 2 4 2 1 0 0 0 -0 -0 0 0 1
1 1 1 1 1 1 1 0 0 0 -0 -0 -0 0 -0 0 -0 0 -0 1 1 1 1 1 1 1 0 1 1 1 1 1 2 3 2 1 1 0 0 0 -0 1 2
1 1 1 1 1 1 1 0 0 0 0 -0 0 0 0 0 0 0 0 0 1 1 1 0 0 1 1 1 1 1 1 1 1 2 3 1 1 0 1 0 0 1 3
1 1 2 1 1 1 1 1 0 0 0 0 0 0 0 0 0 0 0 -0 0 0 0 1 1 1 1 1 1 1 1 1 1 2 2 2 2 1 1 2 2 2 3
1 2 2 1 1 1 1 0 0 0 0 0 0 0 0 0 0 0 -0 0 0 0 0 0 1 2 3 2 1 1 1 2 2 2 3 3 2 2 3 2 2 2 2
2 2 1 1 1 1 1 1 1 1 0 0 1 0 1 0 3 2 0 0 -0 0 1 0 0 2 3 4 3 4 4 2 2 2 2 3 2 2 2 2 2 3 4
2 1 1 2 2 1 1 1 1 1 1 1 1 1 1 0 4 2 3 -0 -0 0 0 0 0 0 0 0 3 3 3 3 3 1 2 2 2 2 1 2 2 2 3
2 2 1 1 2 1 1 1 1 1 1 1 1 1 1 4 5 4 3 0 -0 -0 0 1 0 1 2 0 0 2 4 4 3 2 3 4 3 2 2 1 1 2 3
2 2 2 1 2 2 2 2 1 1 1 1 1 1 1 4 6 6 2 -0 1 1 1 3 1 1 5 4 1 2 4 5 5 5 5 5 4 4 2 0 2 3 3
2 2 1 1 2 2 2 2 1 1 3 2 3 3 5 4 8 6 4 1 2 1 1 2 6 5 6 5 1 2 4 5 5 6 6 6 5 4 4 2 2 3 4
1 1 1 1 2 2 2 2 2 4 4 5 5 6 6 7 7 7 6 1 2 3 3 4 6 7 8 7 5 4 5 5 6 7 7 7 6 6 5 4 2 3 5
3 3 2 1 2 2 3 4 4 4 6 6 6 7 7 8 8 8 7 6 5 5 6 7 8 9 9 8 7 7 7 6 7 7 7 7 6 6 5 3 3 2 2
2 3 4 4 5 4 5 5 5 5 6 6 6 7 7 7 7 9 8 7 7 7 7 8 9 10 9 8 8 7 7 7 7 8 7 7 6 4 4 4 3 3 2
2 3 4 4 5 4 5 5 5 5 5 6 6 6 6 7 7 7 7 7 7 7 7 6 7 7 7 7 7 6 6 6 6 6 5 5 5 5 5 3 3 3 3
2 3 4 5 7 8 10 9 7 10 8 5 5 5 6 7 8 9 7 6 6 7 7 6 6 6 7 7 7 7 6 5 6 5 4 3 3 4 4 2 2 2 4
3 2 4 4 5 6 7 8 11 13 13 13 10 8 9 10 12 12 13 11 9 9 4 5 5 5 5 4 4 4 3 2 1 1 1 2 3 3 3 2 1 2 2
2 3 4 4 4 4 5 6 7 9 12 13 13 13 11 11 12 12 10 9 8 6 3 2 2 2 2 1 1 1 1 1 0 1 2 2 2 3 2 2 2 2 3
2 4 2 2 2 2 2 3 4 4 5 5 8 7 10 10 10 9 8 7 3 5 1 2 2 1 1 1 1 1 1 1 1 1 1 2 2 1 2 2 1 2 2
1 1 1 1 1 2 1 2 2 2 2 2 2 5 6 8 9 8 9 1 2 1 1 1 1 1 1 1 1 1 0 1 0 1 1 1 1 1 1 1 3 4 3
1 1 1 1 1 1 1 2 2 2 2 2 2 2 1 2 1 1 1 1 1 1 1 1 0 0 0 0 0 0 0 0 0 0 0 0 0 0 1 2 3 3 3
1 1 0 1 1 1 1 1 1 1 2 2 2 1 3 1 1 1 1 0 0 1 0 0 0 0 0 0 0 0 0 1 0 0 1 1 0 1 1 2 2 3 3
1 1 1 1 1 1 1 1 1 1 1 1 1 1 5 1 1 1 1 0 -0 -0 -0 -0 0 -0 0 -0 -0 0 0 0 1 1 1 1 1 1 1 2 2 2 3
1 1 1 1 1 1 1 1 1 1 1 1 1 1 1 1 1 1 0 0 -0 -0 -1 -1 -1 -0 -1 -1 -1 -1 -1 0 -0 -0 0 1 1 1 1 2 2 2 1
1 1 1 1 1 1 1 1 1 2 1 1 1 1 1 1 0 0 0 -0 -0 -0 -1 -1 -1 -1 -1 -1 -1 -1 -1 -1 -1 -0 -1 0 1 3 1 1 1 1 1
1 1 1 1 1 1 1 1 1 1 1 1 1 1 1 1 0 -0 -0 -0 -0 -0 -0 -1 -1 -1 -0 -2 -2 -1 6 8 1 3 -0 -1 -0 -0 0 0 0 0 1
1 1 1 1 1 1 1 1 1 1 1 1 1 1 1 0 0 -1 -1 -0 -0 -1 -1 -1 -1 -1 0 -0 -1 7 12 10 4 9 0 -1 -0 -0 0 0 1 1 1